owner,sensor,date,latitude,longitude,sea_surface_height_above_sea_level,qcFlag 
COMPS,ioos:station:USF.COMPS:SHP:1,2017-01-01T17:42:00Z,30.0600,-84.2910,-9.97,1111122 
COMPS,ioos:station:USF.COMPS:SHP:1,2017-01-01T17:48:00Z,30.0600,-84.2910,-9.941,1111122 
COMPS,ioos:station:USF.COMPS:SHP:1,2017-01-01T17:54:00Z,30.0600,-84.2910,-9.914,1111122 
COMPS,ioos:station:USF.COMPS:SHP:1,2017-01-01T18:00:00Z,30.0600,-84.2910,-9.886,1111122 
COMPS,ioos:station:USF.COMPS:SHP:1,2017-01-01T18:06:00Z,30.0600,-84.2910,-9.855,1111122 
COMPS,ioos:station:USF.COMPS:SHP:1,2017-01-01T18:12:00Z,30.0600,-84.2910,-9.83,1111122 
COMPS,ioos:station:USF.COMPS:SHP:1,2017-01-01T18:18:00Z,30.0600,-84.2910,-9.809,1111122 
COMPS,ioos:station:USF.COMPS:SHP:1,2017-01-01T18:24:00Z,30.0600,-84.2910,-9.786,1111122 
COMPS,ioos:station:USF.COMPS:SHP:1,2017-01-01T18:30:00Z,30.0600,-84.2910,-9.756,1111122 
COMPS,ioos:station:USF.COMPS:SHP:1,2017-01-01T18:36:00Z,30.0600,-84.2910,-9.73,1111122 
COMPS,ioos:station:USF.COMPS:SHP:1,2017-01-01T18:42:00Z,30.0600,-84.2910,-9.709,1111122 
COMPS,ioos:station:USF.COMPS:SHP:1,2017-01-01T18:48:00Z,30.0600,-84.2910,-9.69,1111122 
COMPS,ioos:station:USF.COMPS:SHP:1,2017-01-01T18:54:00Z,30.0600,-84.2910,-9.665,1111122 
COMPS,ioos:station:USF.COMPS:SHP:1,2017-01-01T19:00:00Z,30.0600,-84.2910,-9.639,1111122 
COMPS,ioos:station:USF.COMPS:SHP:1,2017-01-01T19:06:00Z,30.0600,-84.2910,-9.618,1111122 
COMPS,ioos:station:USF.COMPS:SHP:1,2017-01-01T19:12:00Z,30.0600,-84.2910,-9.596,1111122 
COMPS,ioos:station:USF.COMPS:SHP:1,2017-01-01T19:18:00Z,30.0600,-84.2910,-9.576,1111122 
COMPS,ioos:station:USF.COMPS:SHP:1,2017-01-01T19:24:00Z,30.0600,-84.2910,-9.56,1111122 
COMPS,ioos:station:USF.COMPS:SHP:1,2017-01-01T19:30:00Z,30.0600,-84.2910,-9.541,1111122 
COMPS,ioos:station:USF.COMPS:SHP:1,2017-01-01T19:36:00Z,30.0600,-84.2910,-9.52,1111122 
COMPS,ioos:station:USF.COMPS:SHP:1,2017-01-01T19:42:00Z,30.0600,-84.2910,-9.503,1111122 
COMPS,ioos:station:USF.COMPS:SHP:1,2017-01-01T19:48:00Z,30.0600,-84.2910,-9.487,1111122 
COMPS,ioos:station:USF.COMPS:SHP:1,2017-01-01T19:54:00Z,30.0600,-84.2910,-9.471,1111122 
COMPS,ioos:station:USF.COMPS:SHP:1,2017-01-01T20:00:00Z,30.0600,-84.2910,-9.459,1111122 
COMPS,ioos:station:USF.COMPS:SHP:1,2017-01-01T20:06:00Z,30.0600,-84.2910,-9.443,1111122 
COMPS,ioos:station:USF.COMPS:SHP:1,2017-01-01T20:12:00Z,30.0600,-84.2910,-9.422,1111122 
COMPS,ioos:station:USF.COMPS:SHP:1,2017-01-01T20:18:00Z,30.0600,-84.2910,-9.405,1111122 
COMPS,ioos:station:USF.COMPS:SHP:1,2017-01-01T20:24:00Z,30.0600,-84.2910,-9.394,1111122 
COMPS,ioos:station:USF.COMPS:SHP:1,2017-01-01T20:30:00Z,30.0600,-84.2910,-9.382,1111122 
COMPS,ioos:station:USF.COMPS:SHP:1,2017-01-01T20:36:00Z,30.0600,-84.2910,-9.369,1111122 
COMPS,ioos:station:USF.COMPS:SHP:1,2017-01-01T20:42:00Z,30.0600,-84.2910,-9.359,1111122 
COMPS,ioos:station:USF.COMPS:SHP:1,2017-01-01T20:48:00Z,30.0600,-84.2910,-9.347,1111122 
COMPS,ioos:station:USF.COMPS:SHP:1,2017-01-01T20:54:00Z,30.0600,-84.2910,-9.34,1111122 
COMPS,ioos:station:USF.COMPS:SHP:1,2017-01-01T21:00:00Z,30.0600,-84.2910,-9.33,1111122 
COMPS,ioos:station:USF.COMPS:SHP:1,2017-01-01T21:06:00Z,30.0600,-84.2910,-9.318,1111122 
COMPS,ioos:station:USF.COMPS:SHP:1,2017-01-01T21:12:00Z,30.0600,-84.2910,-9.323,1111122 
COMPS,ioos:station:USF.COMPS:SHP:1,2017-01-01T21:18:00Z,30.0600,-84.2910,-9.314,1111122 
COMPS,ioos:station:USF.COMPS:SHP:1,2017-01-01T21:24:00Z,30.0600,-84.2910,-9.312,1111122 
COMPS,ioos:station:USF.COMPS:SHP:1,2017-01-01T21:30:00Z,30.0600,-84.2910,-9.31,1111122 
COMPS,ioos:station:USF.COMPS:SHP:1,2017-01-01T21:36:00Z,30.0600,-84.2910,-9.307,1111122 
COMPS,ioos:station:USF.COMPS:SHP:1,2017-01-01T21:42:00Z,30.0600,-84.2910,-9.301,1111122 
COMPS,ioos:station:USF.COMPS:SHP:1,2017-01-01T21:48:00Z,30.0600,-84.2910,-9.297,1111122 
COMPS,ioos:station:USF.COMPS:SHP:1,2017-01-01T21:54:00Z,30.0600,-84.2910,-9.295,1111122 
COMPS,ioos:station:USF.COMPS:SHP:1,2017-01-02T18:48:00Z,30.0600,-84.2910,-9.973,1111122 
COMPS,ioos:station:USF.COMPS:SHP:1,2017-01-02T18:54:00Z,30.0600,-84.2910,-9.939,1111122 
COMPS,ioos:station:USF.COMPS:SHP:1,2017-01-02T19:00:00Z,30.0600,-84.2910,-9.913,1111122 
COMPS,ioos:station:USF.COMPS:SHP:1,2017-01-02T19:06:00Z,30.0600,-84.2910,-9.882,1111122 
COMPS,ioos:station:USF.COMPS:SHP:1,2017-01-02T19:12:00Z,30.0600,-84.2910,-9.855,1111122 
COMPS,ioos:station:USF.COMPS:SHP:1,2017-01-02T19:18:00Z,30.0600,-84.2910,-9.828,1111122 
COMPS,ioos:station:USF.COMPS:SHP:1,2017-01-02T19:24:00Z,30.0600,-84.2910,-9.801,1111122 
COMPS,ioos:station:USF.COMPS:SHP:1,2017-01-02T19:30:00Z,30.0600,-84.2910,-9.775,1111122 
COMPS,ioos:station:USF.COMPS:SHP:1,2017-01-02T19:36:00Z,30.0600,-84.2910,-9.743,1111122 
COMPS,ioos:station:USF.COMPS:SHP:1,2017-01-02T19:42:00Z,30.0600,-84.2910,-9.719,1111122 
COMPS,ioos:station:USF.COMPS:SHP:1,2017-01-02T19:48:00Z,30.0600,-84.2910,-9.708,1111122 
COMPS,ioos:station:USF.COMPS:SHP:1,2017-01-02T19:54:00Z,30.0600,-84.2910,-9.689,1111122 
COMPS,ioos:station:USF.COMPS:SHP:1,2017-01-02T20:00:00Z,30.0600,-84.2910,-9.66,1111122 
COMPS,ioos:station:USF.COMPS:SHP:1,2017-01-02T20:06:00Z,30.0600,-84.2910,-9.633,1111122 
COMPS,ioos:station:USF.COMPS:SHP:1,2017-01-02T20:12:00Z,30.0600,-84.2910,-9.624,1111122 
COMPS,ioos:station:USF.COMPS:SHP:1,2017-01-02T20:18:00Z,30.0600,-84.2910,-9.616,1111122 
COMPS,ioos:station:USF.COMPS:SHP:1,2017-01-02T20:24:00Z,30.0600,-84.2910,-9.599,1111122 
COMPS,ioos:station:USF.COMPS:SHP:1,2017-01-02T20:30:00Z,30.0600,-84.2910,-9.584,1111122 
COMPS,ioos:station:USF.COMPS:SHP:1,2017-01-02T20:36:00Z,30.0600,-84.2910,-9.568,1111122 
COMPS,ioos:station:USF.COMPS:SHP:1,2017-01-02T20:42:00Z,30.0600,-84.2910,-9.549,1111122 
COMPS,ioos:station:USF.COMPS:SHP:1,2017-01-02T20:48:00Z,30.0600,-84.2910,-9.544,1111122 
COMPS,ioos:station:USF.COMPS:SHP:1,2017-01-02T20:54:00Z,30.0600,-84.2910,-9.542,1111122 
COMPS,ioos:station:USF.COMPS:SHP:1,2017-01-02T21:00:00Z,30.0600,-84.2910,-9.525,1111122 
COMPS,ioos:station:USF.COMPS:SHP:1,2017-01-02T21:06:00Z,30.0600,-84.2910,-9.512,1111122 
COMPS,ioos:station:USF.COMPS:SHP:1,2017-01-02T21:12:00Z,30.0600,-84.2910,-9.496,1111122 
COMPS,ioos:station:USF.COMPS:SHP:1,2017-01-02T21:18:00Z,30.0600,-84.2910,-9.479,1111122 
COMPS,ioos:station:USF.COMPS:SHP:1,2017-01-02T21:24:00Z,30.0600,-84.2910,-9.473,1111122 
COMPS,ioos:station:USF.COMPS:SHP:1,2017-01-02T21:30:00Z,30.0600,-84.2910,-9.473,1111122 
COMPS,ioos:station:USF.COMPS:SHP:1,2017-01-02T21:36:00Z,30.0600,-84.2910,-9.471,1111122 
COMPS,ioos:station:USF.COMPS:SHP:1,2017-01-02T21:42:00Z,30.0600,-84.2910,-9.468,1111122 
COMPS,ioos:station:USF.COMPS:SHP:1,2017-01-02T21:48:00Z,30.0600,-84.2910,-9.471,1111122 
COMPS,ioos:station:USF.COMPS:SHP:1,2017-01-02T21:54:00Z,30.0600,-84.2910,-9.464,1111122 
COMPS,ioos:station:USF.COMPS:SHP:1,2017-01-03T19:30:00Z,30.0600,-84.2910,-9.975,1111122 
COMPS,ioos:station:USF.COMPS:SHP:1,2017-01-03T19:36:00Z,30.0600,-84.2910,-9.952,1111122 
COMPS,ioos:station:USF.COMPS:SHP:1,2017-01-03T19:42:00Z,30.0600,-84.2910,-9.932,1111122 
COMPS,ioos:station:USF.COMPS:SHP:1,2017-01-03T19:48:00Z,30.0600,-84.2910,-9.908,1111122 
COMPS,ioos:station:USF.COMPS:SHP:1,2017-01-03T19:54:00Z,30.0600,-84.2910,-9.884,1111122 
COMPS,ioos:station:USF.COMPS:SHP:1,2017-01-03T20:00:00Z,30.0600,-84.2910,-9.855,1111122 
COMPS,ioos:station:USF.COMPS:SHP:1,2017-01-03T20:06:00Z,30.0600,-84.2910,-9.83,1111122 
COMPS,ioos:station:USF.COMPS:SHP:1,2017-01-03T20:12:00Z,30.0600,-84.2910,-9.814,1111122 
COMPS,ioos:station:USF.COMPS:SHP:1,2017-01-03T20:18:00Z,30.0600,-84.2910,-9.787,1111122 
COMPS,ioos:station:USF.COMPS:SHP:1,2017-01-03T20:24:00Z,30.0600,-84.2910,-9.762,1111122 
COMPS,ioos:station:USF.COMPS:SHP:1,2017-01-03T20:30:00Z,30.0600,-84.2910,-9.741,1111122 
COMPS,ioos:station:USF.COMPS:SHP:1,2017-01-03T20:36:00Z,30.0600,-84.2910,-9.718,1111122 
COMPS,ioos:station:USF.COMPS:SHP:1,2017-01-03T20:42:00Z,30.0600,-84.2910,-9.699,1111122 
COMPS,ioos:station:USF.COMPS:SHP:1,2017-01-03T20:48:00Z,30.0600,-84.2910,-9.675,1111122 
COMPS,ioos:station:USF.COMPS:SHP:1,2017-01-03T20:54:00Z,30.0600,-84.2910,-9.66,1111122 
COMPS,ioos:station:USF.COMPS:SHP:1,2017-01-03T21:00:00Z,30.0600,-84.2910,-9.639,1111122 
COMPS,ioos:station:USF.COMPS:SHP:1,2017-01-03T21:06:00Z,30.0600,-84.2910,-9.61,1111122 
COMPS,ioos:station:USF.COMPS:SHP:1,2017-01-03T21:12:00Z,30.0600,-84.2910,-9.597,1111122 
COMPS,ioos:station:USF.COMPS:SHP:1,2017-01-03T21:18:00Z,30.0600,-84.2910,-9.578,1111122 
COMPS,ioos:station:USF.COMPS:SHP:1,2017-01-03T21:24:00Z,30.0600,-84.2910,-9.562,1111122 
COMPS,ioos:station:USF.COMPS:SHP:1,2017-01-03T21:30:00Z,30.0600,-84.2910,-9.551,1111122 
COMPS,ioos:station:USF.COMPS:SHP:1,2017-01-03T21:36:00Z,30.0600,-84.2910,-9.544,1111122 
COMPS,ioos:station:USF.COMPS:SHP:1,2017-01-03T21:42:00Z,30.0600,-84.2910,-9.523,1111122 
COMPS,ioos:station:USF.COMPS:SHP:1,2017-01-03T21:48:00Z,30.0600,-84.2910,-9.513,1111122 
COMPS,ioos:station:USF.COMPS:SHP:1,2017-01-03T21:54:00Z,30.0600,-84.2910,-9.501,1111122 
COMPS,ioos:station:USF.COMPS:SHP:1,2017-01-03T22:00:00Z,30.0600,-84.2910,-9.48,1111122 
COMPS,ioos:station:USF.COMPS:SHP:1,2017-01-03T22:06:00Z,30.0600,-84.2910,-9.479,1111122 
COMPS,ioos:station:USF.COMPS:SHP:1,2017-01-03T22:12:00Z,30.0600,-84.2910,-9.486,1111122 
COMPS,ioos:station:USF.COMPS:SHP:1,2017-01-03T22:18:00Z,30.0600,-84.2910,-9.474,1111122 
COMPS,ioos:station:USF.COMPS:SHP:1,2017-01-03T22:24:00Z,30.0600,-84.2910,-9.462,1111122 
COMPS,ioos:station:USF.COMPS:SHP:1,2017-01-03T22:30:00Z,30.0600,-84.2910,-9.463,1111122 
COMPS,ioos:station:USF.COMPS:SHP:1,2017-01-03T22:36:00Z,30.0600,-84.2910,-9.465,1111122 
COMPS,ioos:station:USF.COMPS:SHP:1,2017-01-03T22:42:00Z,30.0600,-84.2910,-9.455,1111122 
COMPS,ioos:station:USF.COMPS:SHP:1,2017-01-03T22:48:00Z,30.0600,-84.2910,-9.462,1111122 
COMPS,ioos:station:USF.COMPS:SHP:1,2017-01-03T22:54:00Z,30.0600,-84.2910,-9.463,1111122 
COMPS,ioos:station:USF.COMPS:SHP:1,2017-01-04T12:42:00Z,30.0600,-84.2910,-9.748,1111122 
COMPS,ioos:station:USF.COMPS:SHP:1,2017-01-04T12:48:00Z,30.0600,-84.2910,-9.768,1111122 
COMPS,ioos:station:USF.COMPS:SHP:1,2017-01-04T12:54:00Z,30.0600,-84.2910,-9.788,1111122 
COMPS,ioos:station:USF.COMPS:SHP:1,2017-01-04T13:00:00Z,30.0600,-84.2910,-9.803,1111122 
COMPS,ioos:station:USF.COMPS:SHP:1,2017-01-04T13:06:00Z,30.0600,-84.2910,-9.818,1111122 
COMPS,ioos:station:USF.COMPS:SHP:1,2017-01-04T13:12:00Z,30.0600,-84.2910,-9.837,1111122 
COMPS,ioos:station:USF.COMPS:SHP:1,2017-01-04T13:18:00Z,30.0600,-84.2910,-9.856,1111122 
COMPS,ioos:station:USF.COMPS:SHP:1,2017-01-04T13:24:00Z,30.0600,-84.2910,-9.869,1111122 
COMPS,ioos:station:USF.COMPS:SHP:1,2017-01-04T13:30:00Z,30.0600,-84.2910,-9.892,1111122 
COMPS,ioos:station:USF.COMPS:SHP:1,2017-01-04T13:36:00Z,30.0600,-84.2910,-9.916,1111122 
COMPS,ioos:station:USF.COMPS:SHP:1,2017-01-04T13:42:00Z,30.0600,-84.2910,-9.941,1111122 
COMPS,ioos:station:USF.COMPS:SHP:1,2017-01-04T13:48:00Z,30.0600,-84.2910,-9.962,1111122 
COMPS,ioos:station:USF.COMPS:SHP:1,2017-01-04T13:54:00Z,30.0600,-84.2910,-9.97,1111122 
COMPS,ioos:station:USF.COMPS:SHP:1,2017-01-04T14:00:00Z,30.0600,-84.2910,-9.981,1111122 
COMPS,ioos:station:USF.COMPS:SHP:1,2017-01-04T20:54:00Z,30.0600,-84.2910,-9.968,1111122 
COMPS,ioos:station:USF.COMPS:SHP:1,2017-01-04T21:00:00Z,30.0600,-84.2910,-9.94,1111122 
COMPS,ioos:station:USF.COMPS:SHP:1,2017-01-04T21:06:00Z,30.0600,-84.2910,-9.923,1111122 
COMPS,ioos:station:USF.COMPS:SHP:1,2017-01-04T21:12:00Z,30.0600,-84.2910,-9.905,1111122 
COMPS,ioos:station:USF.COMPS:SHP:1,2017-01-04T21:18:00Z,30.0600,-84.2910,-9.875,1111122 
COMPS,ioos:station:USF.COMPS:SHP:1,2017-01-04T21:24:00Z,30.0600,-84.2910,-9.843,1111122 
COMPS,ioos:station:USF.COMPS:SHP:1,2017-01-04T21:30:00Z,30.0600,-84.2910,-9.829,1111122 
COMPS,ioos:station:USF.COMPS:SHP:1,2017-01-04T21:36:00Z,30.0600,-84.2910,-9.823,1111122 
COMPS,ioos:station:USF.COMPS:SHP:1,2017-01-04T21:42:00Z,30.0600,-84.2910,-9.808,1111122 
COMPS,ioos:station:USF.COMPS:SHP:1,2017-01-04T21:48:00Z,30.0600,-84.2910,-9.786,1111122 
COMPS,ioos:station:USF.COMPS:SHP:1,2017-01-04T21:54:00Z,30.0600,-84.2910,-9.769,1111122 
COMPS,ioos:station:USF.COMPS:SHP:1,2017-01-04T22:00:00Z,30.0600,-84.2910,-9.761,1111122 
COMPS,ioos:station:USF.COMPS:SHP:1,2017-01-04T22:06:00Z,30.0600,-84.2910,-9.755,1111122 
COMPS,ioos:station:USF.COMPS:SHP:1,2017-01-04T22:12:00Z,30.0600,-84.2910,-9.745,1111122 
COMPS,ioos:station:USF.COMPS:SHP:1,2017-01-04T22:18:00Z,30.0600,-84.2910,-9.723,1111122 
COMPS,ioos:station:USF.COMPS:SHP:1,2017-01-04T22:24:00Z,30.0600,-84.2910,-9.708,1111122 
COMPS,ioos:station:USF.COMPS:SHP:1,2017-01-04T22:30:00Z,30.0600,-84.2910,-9.693,1111122 
COMPS,ioos:station:USF.COMPS:SHP:1,2017-01-04T22:36:00Z,30.0600,-84.2910,-9.682,1111122 
COMPS,ioos:station:USF.COMPS:SHP:1,2017-01-04T22:42:00Z,30.0600,-84.2910,-9.675,1111122 
COMPS,ioos:station:USF.COMPS:SHP:1,2017-01-04T22:48:00Z,30.0600,-84.2910,-9.663,1111122 
COMPS,ioos:station:USF.COMPS:SHP:1,2017-01-04T22:54:00Z,30.0600,-84.2910,-9.655,1111122 
COMPS,ioos:station:USF.COMPS:SHP:1,2017-01-05T12:00:00Z,30.0600,-84.2910,-9.674,1111122 
COMPS,ioos:station:USF.COMPS:SHP:1,2017-01-05T12:06:00Z,30.0600,-84.2910,-9.673,1111122 
COMPS,ioos:station:USF.COMPS:SHP:1,2017-01-05T12:12:00Z,30.0600,-84.2910,-9.675,1111122 
COMPS,ioos:station:USF.COMPS:SHP:1,2017-01-05T12:18:00Z,30.0600,-84.2910,-9.676,1111122 
COMPS,ioos:station:USF.COMPS:SHP:1,2017-01-05T12:24:00Z,30.0600,-84.2910,-9.685,1111122 
COMPS,ioos:station:USF.COMPS:SHP:1,2017-01-05T12:30:00Z,30.0600,-84.2910,-9.685,1111122 
COMPS,ioos:station:USF.COMPS:SHP:1,2017-01-05T12:36:00Z,30.0600,-84.2910,-9.696,1111122 
COMPS,ioos:station:USF.COMPS:SHP:1,2017-01-05T12:42:00Z,30.0600,-84.2910,-9.702,1111122 
COMPS,ioos:station:USF.COMPS:SHP:1,2017-01-05T12:48:00Z,30.0600,-84.2910,-9.705,1111122 
COMPS,ioos:station:USF.COMPS:SHP:1,2017-01-05T12:54:00Z,30.0600,-84.2910,-9.709,1111122 
COMPS,ioos:station:USF.COMPS:SHP:1,2017-01-05T13:00:00Z,30.0600,-84.2910,-9.72,1111122 
COMPS,ioos:station:USF.COMPS:SHP:1,2017-01-05T13:06:00Z,30.0600,-84.2910,-9.715,1111122 
COMPS,ioos:station:USF.COMPS:SHP:1,2017-01-05T13:12:00Z,30.0600,-84.2910,-9.721,1111122 
COMPS,ioos:station:USF.COMPS:SHP:1,2017-01-05T13:18:00Z,30.0600,-84.2910,-9.73,1111122 
COMPS,ioos:station:USF.COMPS:SHP:1,2017-01-05T13:24:00Z,30.0600,-84.2910,-9.732,1111122 
COMPS,ioos:station:USF.COMPS:SHP:1,2017-01-05T13:30:00Z,30.0600,-84.2910,-9.749,1111122 
COMPS,ioos:station:USF.COMPS:SHP:1,2017-01-05T13:36:00Z,30.0600,-84.2910,-9.758,1111122 
COMPS,ioos:station:USF.COMPS:SHP:1,2017-01-05T13:42:00Z,30.0600,-84.2910,-9.77,1111122 
COMPS,ioos:station:USF.COMPS:SHP:1,2017-01-05T13:48:00Z,30.0600,-84.2910,-9.78,1111122 
COMPS,ioos:station:USF.COMPS:SHP:1,2017-01-05T13:54:00Z,30.0600,-84.2910,-9.781,1111122 
COMPS,ioos:station:USF.COMPS:SHP:1,2017-01-05T14:00:00Z,30.0600,-84.2910,-9.792,1111122 
COMPS,ioos:station:USF.COMPS:SHP:1,2017-01-05T14:06:00Z,30.0600,-84.2910,-9.797,1111122 
COMPS,ioos:station:USF.COMPS:SHP:1,2017-01-05T14:12:00Z,30.0600,-84.2910,-9.812,1111122 
COMPS,ioos:station:USF.COMPS:SHP:1,2017-01-05T14:18:00Z,30.0600,-84.2910,-9.834,1111122 
COMPS,ioos:station:USF.COMPS:SHP:1,2017-01-05T14:24:00Z,30.0600,-84.2910,-9.848,1111122 
COMPS,ioos:station:USF.COMPS:SHP:1,2017-01-05T14:30:00Z,30.0600,-84.2910,-9.857,1111122 
COMPS,ioos:station:USF.COMPS:SHP:1,2017-01-05T14:36:00Z,30.0600,-84.2910,-9.864,1111122 
COMPS,ioos:station:USF.COMPS:SHP:1,2017-01-05T14:42:00Z,30.0600,-84.2910,-9.882,1111122 
COMPS,ioos:station:USF.COMPS:SHP:1,2017-01-05T14:48:00Z,30.0600,-84.2910,-9.898,1111122 
COMPS,ioos:station:USF.COMPS:SHP:1,2017-01-05T14:54:00Z,30.0600,-84.2910,-9.918,1111122 
COMPS,ioos:station:USF.COMPS:SHP:1,2017-01-05T15:00:00Z,30.0600,-84.2910,-9.938,1111122 
COMPS,ioos:station:USF.COMPS:SHP:1,2017-01-05T15:06:00Z,30.0600,-84.2910,-9.954,1111122 
COMPS,ioos:station:USF.COMPS:SHP:1,2017-01-05T15:12:00Z,30.0600,-84.2910,-9.965,1111122 
COMPS,ioos:station:USF.COMPS:SHP:1,2017-01-05T15:18:00Z,30.0600,-84.2910,-9.98,1111122 
COMPS,ioos:station:USF.COMPS:SHP:1,2017-01-05T20:36:00Z,30.0600,-84.2910,-9.989,1111122 
COMPS,ioos:station:USF.COMPS:SHP:1,2017-01-05T20:42:00Z,30.0600,-84.2910,-9.973,1111122 
COMPS,ioos:station:USF.COMPS:SHP:1,2017-01-05T20:48:00Z,30.0600,-84.2910,-9.949,1111122 
COMPS,ioos:station:USF.COMPS:SHP:1,2017-01-05T20:54:00Z,30.0600,-84.2910,-9.934,1111122 
COMPS,ioos:station:USF.COMPS:SHP:1,2017-01-05T21:00:00Z,30.0600,-84.2910,-9.92,1111122 
COMPS,ioos:station:USF.COMPS:SHP:1,2017-01-05T21:06:00Z,30.0600,-84.2910,-9.9,1111122 
COMPS,ioos:station:USF.COMPS:SHP:1,2017-01-05T21:12:00Z,30.0600,-84.2910,-9.875,1111122 
COMPS,ioos:station:USF.COMPS:SHP:1,2017-01-05T21:18:00Z,30.0600,-84.2910,-9.856,1111122 
COMPS,ioos:station:USF.COMPS:SHP:1,2017-01-05T21:24:00Z,30.0600,-84.2910,-9.842,1111122 
COMPS,ioos:station:USF.COMPS:SHP:1,2017-01-05T21:30:00Z,30.0600,-84.2910,-9.827,1111122 
COMPS,ioos:station:USF.COMPS:SHP:1,2017-01-05T21:36:00Z,30.0600,-84.2910,-9.804,1111122 
COMPS,ioos:station:USF.COMPS:SHP:1,2017-01-05T21:42:00Z,30.0600,-84.2910,-9.789,1111122 
COMPS,ioos:station:USF.COMPS:SHP:1,2017-01-05T21:48:00Z,30.0600,-84.2910,-9.773,1111122 
COMPS,ioos:station:USF.COMPS:SHP:1,2017-01-05T21:54:00Z,30.0600,-84.2910,-9.757,1111122 
COMPS,ioos:station:USF.COMPS:SHP:1,2017-01-05T22:00:00Z,30.0600,-84.2910,-9.749,1111122 
COMPS,ioos:station:USF.COMPS:SHP:1,2017-01-05T22:06:00Z,30.0600,-84.2910,-9.744,1111122 
COMPS,ioos:station:USF.COMPS:SHP:1,2017-01-05T22:12:00Z,30.0600,-84.2910,-9.731,1111122 
COMPS,ioos:station:USF.COMPS:SHP:1,2017-01-05T22:18:00Z,30.0600,-84.2910,-9.716,1111122 
COMPS,ioos:station:USF.COMPS:SHP:1,2017-01-05T22:24:00Z,30.0600,-84.2910,-9.704,1111122 
COMPS,ioos:station:USF.COMPS:SHP:1,2017-01-05T22:30:00Z,30.0600,-84.2910,-9.693,1111122 
COMPS,ioos:station:USF.COMPS:SHP:1,2017-01-05T22:36:00Z,30.0600,-84.2910,-9.672,1111122 
COMPS,ioos:station:USF.COMPS:SHP:1,2017-01-05T22:42:00Z,30.0600,-84.2910,-9.663,1111122 
COMPS,ioos:station:USF.COMPS:SHP:1,2017-01-05T22:48:00Z,30.0600,-84.2910,-9.655,1111122 
COMPS,ioos:station:USF.COMPS:SHP:1,2017-01-05T22:54:00Z,30.0600,-84.2910,-9.648,1111122 
COMPS,ioos:station:USF.COMPS:SHP:1,2017-01-06T14:00:00Z,30.0600,-84.2910,-9.59,1111122 
COMPS,ioos:station:USF.COMPS:SHP:1,2017-01-06T14:06:00Z,30.0600,-84.2910,-9.596,1111122 
COMPS,ioos:station:USF.COMPS:SHP:1,2017-01-06T14:12:00Z,30.0600,-84.2910,-9.603,1111122 
COMPS,ioos:station:USF.COMPS:SHP:1,2017-01-06T14:18:00Z,30.0600,-84.2910,-9.604,1111122 
COMPS,ioos:station:USF.COMPS:SHP:1,2017-01-06T14:24:00Z,30.0600,-84.2910,-9.614,1111122 
COMPS,ioos:station:USF.COMPS:SHP:1,2017-01-06T14:30:00Z,30.0600,-84.2910,-9.62,1111122 
COMPS,ioos:station:USF.COMPS:SHP:1,2017-01-06T14:36:00Z,30.0600,-84.2910,-9.618,1111122 
COMPS,ioos:station:USF.COMPS:SHP:1,2017-01-06T14:42:00Z,30.0600,-84.2910,-9.625,1111122 
COMPS,ioos:station:USF.COMPS:SHP:1,2017-01-06T14:48:00Z,30.0600,-84.2910,-9.64,1111122 
COMPS,ioos:station:USF.COMPS:SHP:1,2017-01-06T14:54:00Z,30.0600,-84.2910,-9.651,1111122 
COMPS,ioos:station:USF.COMPS:SHP:1,2017-01-06T15:00:00Z,30.0600,-84.2910,-9.664,1111122 
COMPS,ioos:station:USF.COMPS:SHP:1,2017-01-06T15:06:00Z,30.0600,-84.2910,-9.675,1111122 
COMPS,ioos:station:USF.COMPS:SHP:1,2017-01-06T15:12:00Z,30.0600,-84.2910,-9.683,1111122 
COMPS,ioos:station:USF.COMPS:SHP:1,2017-01-06T15:18:00Z,30.0600,-84.2910,-9.686,1111122 
COMPS,ioos:station:USF.COMPS:SHP:1,2017-01-06T15:24:00Z,30.0600,-84.2910,-9.692,1111122 
COMPS,ioos:station:USF.COMPS:SHP:1,2017-01-06T15:30:00Z,30.0600,-84.2910,-9.705,1111122 
COMPS,ioos:station:USF.COMPS:SHP:1,2017-01-06T15:36:00Z,30.0600,-84.2910,-9.717,1111122 
COMPS,ioos:station:USF.COMPS:SHP:1,2017-01-06T15:42:00Z,30.0600,-84.2910,-9.732,1111122 
COMPS,ioos:station:USF.COMPS:SHP:1,2017-01-06T15:48:00Z,30.0600,-84.2910,-9.754,1111122 
COMPS,ioos:station:USF.COMPS:SHP:1,2017-01-06T15:54:00Z,30.0600,-84.2910,-9.768,1111122 
COMPS,ioos:station:USF.COMPS:SHP:1,2017-01-06T16:00:00Z,30.0600,-84.2910,-9.773,1111122 
COMPS,ioos:station:USF.COMPS:SHP:1,2017-01-06T16:06:00Z,30.0600,-84.2910,-9.777,1111122 
COMPS,ioos:station:USF.COMPS:SHP:1,2017-01-06T16:12:00Z,30.0600,-84.2910,-9.787,1111122 
COMPS,ioos:station:USF.COMPS:SHP:1,2017-01-06T16:18:00Z,30.0600,-84.2910,-9.797,1111122 
COMPS,ioos:station:USF.COMPS:SHP:1,2017-01-06T16:24:00Z,30.0600,-84.2910,-9.811,1111122 
COMPS,ioos:station:USF.COMPS:SHP:1,2017-01-06T16:30:00Z,30.0600,-84.2910,-9.819,1111122 
COMPS,ioos:station:USF.COMPS:SHP:1,2017-01-06T16:36:00Z,30.0600,-84.2910,-9.832,1111122 
COMPS,ioos:station:USF.COMPS:SHP:1,2017-01-06T16:42:00Z,30.0600,-84.2910,-9.84,1111122 
COMPS,ioos:station:USF.COMPS:SHP:1,2017-01-06T16:48:00Z,30.0600,-84.2910,-9.847,1111122 
COMPS,ioos:station:USF.COMPS:SHP:1,2017-01-06T16:54:00Z,30.0600,-84.2910,-9.854,1111122 
COMPS,ioos:station:USF.COMPS:SHP:1,2017-01-06T17:00:00Z,30.0600,-84.2910,-9.868,1111122 
COMPS,ioos:station:USF.COMPS:SHP:1,2017-01-06T17:06:00Z,30.0600,-84.2910,-9.887,1111122 
COMPS,ioos:station:USF.COMPS:SHP:1,2017-01-06T17:12:00Z,30.0600,-84.2910,-9.896,1111122 
COMPS,ioos:station:USF.COMPS:SHP:1,2017-01-06T17:18:00Z,30.0600,-84.2910,-9.904,1111122 
COMPS,ioos:station:USF.COMPS:SHP:1,2017-01-06T17:24:00Z,30.0600,-84.2910,-9.914,1111122 
COMPS,ioos:station:USF.COMPS:SHP:1,2017-01-06T17:30:00Z,30.0600,-84.2910,-9.922,1111122 
COMPS,ioos:station:USF.COMPS:SHP:1,2017-01-06T17:36:00Z,30.0600,-84.2910,-9.928,1111122 
COMPS,ioos:station:USF.COMPS:SHP:1,2017-01-06T17:42:00Z,30.0600,-84.2910,-9.936,1111122 
COMPS,ioos:station:USF.COMPS:SHP:1,2017-01-06T17:48:00Z,30.0600,-84.2910,-9.941,1111122 
COMPS,ioos:station:USF.COMPS:SHP:1,2017-01-06T17:54:00Z,30.0600,-84.2910,-9.948,1111122 
COMPS,ioos:station:USF.COMPS:SHP:1,2017-01-06T18:00:00Z,30.0600,-84.2910,-9.954,1111122 
COMPS,ioos:station:USF.COMPS:SHP:1,2017-01-06T18:06:00Z,30.0600,-84.2910,-9.957,1111122 
COMPS,ioos:station:USF.COMPS:SHP:1,2017-01-06T18:12:00Z,30.0600,-84.2910,-9.959,1111122 
COMPS,ioos:station:USF.COMPS:SHP:1,2017-01-06T18:18:00Z,30.0600,-84.2910,-9.956,1111122 
COMPS,ioos:station:USF.COMPS:SHP:1,2017-01-06T18:24:00Z,30.0600,-84.2910,-9.952,1111122 
COMPS,ioos:station:USF.COMPS:SHP:1,2017-01-06T18:30:00Z,30.0600,-84.2910,-9.959,1111122 
COMPS,ioos:station:USF.COMPS:SHP:1,2017-01-06T18:36:00Z,30.0600,-84.2910,-9.965,1111122 
COMPS,ioos:station:USF.COMPS:SHP:1,2017-01-06T18:42:00Z,30.0600,-84.2910,-9.97,1111122 
COMPS,ioos:station:USF.COMPS:SHP:1,2017-01-06T18:48:00Z,30.0600,-84.2910,-9.985,1111122 
COMPS,ioos:station:USF.COMPS:SHP:1,2017-01-06T18:54:00Z,30.0600,-84.2910,-9.99,1111122 
COMPS,ioos:station:USF.COMPS:SHP:1,2017-01-06T19:00:00Z,30.0600,-84.2910,-9.983,1111122 
COMPS,ioos:station:USF.COMPS:SHP:1,2017-01-06T19:06:00Z,30.0600,-84.2910,-9.982,1111122 
COMPS,ioos:station:USF.COMPS:SHP:1,2017-01-06T19:12:00Z,30.0600,-84.2910,-9.983,1111122 
COMPS,ioos:station:USF.COMPS:SHP:1,2017-01-06T19:18:00Z,30.0600,-84.2910,-9.979,1111122 
COMPS,ioos:station:USF.COMPS:SHP:1,2017-01-06T19:24:00Z,30.0600,-84.2910,-9.977,1111122 
COMPS,ioos:station:USF.COMPS:SHP:1,2017-01-06T19:30:00Z,30.0600,-84.2910,-9.974,1111122 
COMPS,ioos:station:USF.COMPS:SHP:1,2017-01-06T19:36:00Z,30.0600,-84.2910,-9.968,1111122 
COMPS,ioos:station:USF.COMPS:SHP:1,2017-01-06T19:42:00Z,30.0600,-84.2910,-9.968,1111122 
COMPS,ioos:station:USF.COMPS:SHP:1,2017-01-06T19:48:00Z,30.0600,-84.2910,-9.956,1111122 
COMPS,ioos:station:USF.COMPS:SHP:1,2017-01-06T19:54:00Z,30.0600,-84.2910,-9.937,1111122 
COMPS,ioos:station:USF.COMPS:SHP:1,2017-01-06T20:00:00Z,30.0600,-84.2910,-9.929,1111122 
COMPS,ioos:station:USF.COMPS:SHP:1,2017-01-06T20:06:00Z,30.0600,-84.2910,-9.928,1111122 
COMPS,ioos:station:USF.COMPS:SHP:1,2017-01-06T20:12:00Z,30.0600,-84.2910,-9.924,1111122 
COMPS,ioos:station:USF.COMPS:SHP:1,2017-01-06T20:18:00Z,30.0600,-84.2910,-9.918,1111122 
COMPS,ioos:station:USF.COMPS:SHP:1,2017-01-06T20:24:00Z,30.0600,-84.2910,-9.906,1111122 
COMPS,ioos:station:USF.COMPS:SHP:1,2017-01-06T20:30:00Z,30.0600,-84.2910,-9.887,1111122 